Weather in Chaikovsky

Russia / Perm Krai     56°46′41″N   54°08′51″E
temp.,
°C
wind,
m/s
gust,
m/s
humid.,
%
clouds,
%
prec.,
mm/h
press.,
hPa
HPBL,
m
9 may, sun
sun923:00+11se11875 0.8 101710
02:00+10ssw11875 0.0 101610
05:00+9se11870 0.0 101710
08:00+13sse13710 0.0 1017173
11:00+19sse23460 0.0 1016961
14:00+22sse33314 0.0 10162288
17:00+22sse333124 0.0 10162498
20:00+19se24492 0.0 101674
10 may, mon
mon1023:00+14se11570 0.0 101711
02:00+13ese22635 0.0 101813
05:00+11ese247416 0.0 101974
08:00+15se24595 0.0 1020182
11:00+21se234130 0.0 1021815
14:00+24se333043 0.0 10212636
17:00+23se323176 0.0 10212470
20:00+20se1146100 0.0 102212
11 may, tue
tue1123:00+16se0155100 0.0 102411
02:00+14se1157100 0.0 102411
05:00+13se1161100 0.0 102510
08:00+16se1252100 0.0 1026128
11:00+21sse123754 0.0 1027659
14:00+25s222712 0.0 10272501
17:00+25wsw222751 0.0 10272686
20:00+21sw114485 0.0 102815
12 may, wed
wed1223:00+16sw11604 0.0 102913
02:00+14w11663 0.0 102910
05:00+12ene11815 0.0 103010
08:00+17ne126767 0.0 1030192
11:00+22ene214958 0.0 1030941
14:00+26ne113824 0.0 10302239
17:00+26nnw223572 0.0 10292280
20:00+21ne235475 0.0 102986
13 may, thu
thu1323:00+17e11620 0.0 102912
02:00+15e11645 0.0 103010
05:00+14ene11685 0.0 103011
08:00+19ene11555 0.0 1030131
11:00+24ese11381 0.0 10301037
14:00+27e11325 0.0 10292038
17:00+27ese21303 0.0 10282315
20:00+23ese25480 0.0 1028112